User: anonymous
Location: Niverville
(49.6028°N, 97.0419°W)
Time: 10:26:22
(UTC-05:00)
Language:

Cosmos 2237 Rocket - Orbit

View from above orbital plane
View from above orbital plane
View from above satellite
View from above satellite

Ground track
Ground track

The orbit data is extracted from the following two-line orbital elements,

1 22566U 93016B   14106.82328917  .00000344  00000-0  20292-3 0   341
2 22566 071.0086 336.0999 0008327 094.5038 265.7036 14.14832298 87560
Epoch (UTC): 16 April 2014 19:45:32
Eccentricity: 0.0008327
inclination: 71.0086°
perigee height: 837 km
apogee height: 849 km
right ascension of ascending node: 336.0999°
argument of perigee: 94.5038°
revolutions per day: 14.14832298
mean anomaly at epoch: 265.7036°
orbit number at epoch: 8756

The dashed part of the orbit path shows where the satellite is in the earth's shadow,  

DLR